Flag Weather past 2 weeks in Jaipur, Rajasthan, India

Now
72 °F

Haze.


Feels Like: 76 °F
Forecast: 54 / 81 °F
Wind: 3 mph from North

Location: Jaipur / Sanganer

Current Time: Nov 21, 2014 at 10:18:39 PM

Latest Report: Nov 21, 2014 at 9:00 PM


Visibility: 2 mi

Pressure: 29.98 "Hg

Humidity: 29%

Dew point: 37 °F

Location of JaipurLocation

Historic Weather in Jaipur — Graph

°F

Jaipur temperature yesterday

Maximum temperature yesterday: 84 °F (at 3:00 PM)
Minimum temperature yesterday: 57 °F (at 5:00 AM)
Average temperature yesterday: 71 °F

Past Weeks' High & Low Weather Summary

 TemperatureHumidityPressure
High90 °F (Nov 7, 3:00 PM)73% (Nov 8, 6:30 AM)30.15 "Hg (Nov 8, 6:30 AM)
Low54 °F (Nov 16, 5:30 AM)8% (Nov 15, 4:00 PM)29.92 "Hg (Nov 7, 12:00 AM)
Average73 °F37%30.03 "Hg
* Reported Nov 6 9:00 PM — Nov 21 8:00 PM, Jaipur, Weather by CustomWeather, © 2014

Note: Actual official high and low records may vary slightly from our data, if they occured in-between our weather recording intervals... More about our weather records

Advertising

Jaipur weather history for previous 24 hours

 ConditionsComfort  
Time TempWeatherWind HumidityBarometerVisibility
8:00 PM
Nov 21
73 °FHaze.3 mph27%29.98 "Hg1 mi
7:00 PM73 °FHaze.3 mph27%29.95 "Hg1 mi
6:00 PM79 °FHaze.2 mph20%29.95 "Hg1 mi
5:00 PM82 °FHaze.5 mph17%29.95 "Hg2 mi
4:00 PM84 °FHaze.7 mph15%29.95 "Hg2 mi
3:00 PM84 °FHaze.7 mph15%29.95 "Hg2 mi
2:00 PM82 °FHaze.6 mph17%29.98 "Hg2 mi
1:00 PM82 °FHaze.7 mph17%30.01 "Hg2 mi
11:00 AM81 °FClear.5 mph24%30.07 "Hg1 mi
10:00 AM77 °FPassing clouds.5 mph28%30.07 "Hg1 mi
9:00 AM72 °FPassing clouds.2 mph33%30.04 "Hg1 mi
8:00 AM63 °FScattered clouds.No wind56%30.04 "Hg1 mi
7:30 AM57 °FScattered clouds.No wind59%30.01 "Hg1 mi
7:00 AM57 °FPassing clouds.No wind63%30.01 "Hg1 mi
6:00 AM57 °FPassing clouds.No wind63%29.98 "Hg2 mi
5:00 AM61 °FPassing clouds.No wind59%29.98 "Hg1 mi
2:00 AM61 °FPassing clouds.No wind55%29.98 "Hg1 mi
1:00 AM63 °FPassing clouds.No wind56%29.98 "Hg1 mi
12:00 AM64 °FPassing clouds.No wind52%29.98 "Hg1 mi
11:00 PM
Nov 20
66 °FPassing clouds.2 mph46%30.01 "Hg1 mi
Weather by CustomWeather, © 2014

See weather overviewHow to use our weather pages